Weather in Vinsady

Russia / Stavropol Krai     44°05′07″N   42°57′33″E
temp.,
°C
wind,
m/s
gust,
m/s
humid.,
%
clouds,
%
prec.,
mm/h
press.,
hPa
HPBL,
m
17 april, sat
sat1700:00+10se1179100 0.0 101817
03:00+10s2173100 0.0 101817
06:00+9wnw2380100 0.0 101874
09:00+11nw6880100 0.0 1020746
12:00+9nw4689100 0.4 1022672
15:00+8nw3385100 0.6 1022607
18:00+8nnw1287100 0.1 1023306
21:00+7ne1192100 0.1 1023232
18 april, sun
sun1800:00+7ese1293100 0.0 1022221
03:00+7ese2496100 0.0 1021250
06:00+7ese3696100 0.0 1020290
09:00+9ese4689100 0.0 1019422
12:00+11ese558294 1.1 1017386
15:00+13ese3478100 2.1 1017504
18:00+13ese358462 2.2 1018368
21:00+10se2397100 2.8 101889
19 april, mon
mon1900:00+10sse2293100 0.0 101895
03:00+10s2281100 0.0 101712
06:00+12sse1169100 0.0 101611
09:00+16nne226187 0.0 1016322
12:00+19ene555588 0.0 10151266
15:00+19ese665637 0.0 10131345
18:00+17ese4768100 0.3 1013492
21:00+14se3879100 0.4 1013245
20 april, tue
tue2000:00+13se22815 0.0 101037
03:00+13sse2265100 0.0 100734
06:00+14sse2260100 0.0 100631
09:00+18ese2354100 0.0 1004198
12:00+20e5554100 0.0 1002358
15:00+21nw585272 0.0 1005960
18:00+12wnw71083100 0.7 1011740
21:00+9wnw5972100 1.4 1015734
21 april, wed
wed2100:00+9sse2274100 0.1 1016319
03:00+9e3681100 0.4 1017356
06:00+8ese4787100 0.1 1018461
09:00+7e4895100 5.0 1019597
12:00+8ese4792100 0.8 1020668
15:00+8e3695100 1.2 1021539
18:00+7e3697100 0.4 1022548
21:00+7e2498100 0.6 1023351